Location: Unspecified
(54.1780°N, 0.0000°E)
Time: 22:35:54
(UTC+00:00)

Explorer 7 - Pass Details

Date: 23 June 2019
Orbit: 485 x 680 km, 50.3° (Epoch: 17 July)

Event Time Altitude Azimuth Distance (km) Brightness Sun altitude
Rises 13:45:25 0° 278° (W) 2,936 10.8 53.7°
Reaches altitude 10° 13:47:59 10° 266° (W) 2,053 10.3 53.4°
Maximum altitude 13:51:55 26° 210° (SSW) 1,304 10.0 53.0°
Drops below altitude 10° 13:55:56 10° 155° (SSE) 2,104 10.1 52.6°
Sets 13:58:36 0° 143° (SE) 3,025 10.6 52.3°
